Probability
0 0 0 0 0 0 0 0 0 0 0 0 0 0 0 0 0 0 0 0 0 0 0 0 0 0 0 0 0 0 0 0 0 0 0 0 0 0 0 0 0 0 0 0
0 0 0 0 0 0 0 0 0 0 0 0 0 0 0 0 0 0 0 0 0 0 0 0 0 0 0 0 0 0 0 0 0 0 0 0 0 0 0 0 0 0 0 0
0 0 0 0 0 0 0 0 0 0 0 0 0 0 0 0 0 0 0 0 0 0 0 0 0 0 0 0 0 0 0 0 0 0 0 0 0 0 0 0 0 0 0 0
0 0 0 0 0 0 0 0 0 0 0 0 0 0 0 0 0 0 0 0 0 0 0 0 0 0 0 0 0 0 0 0 0 0 0 0 0 0 0 0 0 0 0 0
0 0 0 0 0 0 0 0 0 0 0 0 0 0 0 0 0 0 0 0 0 0 0 0 0 0 0 0 0 0 0 0 0 0 0 0 0 0 0 0 0 0 0 0
0 0 0 0 0 0 0 0 0 0 0 0 0 0 0 0 0 0 0 0 0 0 0 0 0 0 0 0 0 0 0 0 0 0 0 0 0 0 0 0 0 0 0 0
0 0 0 0 0 0 0 0 0 0 0 0 0 0 0 0 0 0 0 0 0 0 0 0 0 0 0 0 0 0 0 0 0 0 0 0 0 0 0 0 0 0 0 0
0 0 0 0 0 0 0 0 0 0 0 0 0 0 0 0 0 0 0 0 0 0 0 0 0 0 0 0 0 0 0 0 0 0 0 0 0 0 0 0 0 0 0 0
0 0 0 0 0 0 0 0 0 0 0 0 0 0 0 0 0 0 0 0 0 0 0 0 0 0 0 0 0 0 0 0 0 0 0 0 0 0 0 0 0 0 0 0
0 0 0 0 0 0 0 0 0 0 0 0 0 0 0 0 0 0 0 0 0 0 0 0 0 0 0 0 0 0 0 0 0 0 0 0 0 0 0 0 0 0 0 0
0 0 0 0 0 0 0 0 0 0 0 0 0 0 0 0 0 0 0 0 0 0 0 0 0 0 0 0 0 0 0 0 0 0 0 0 0 0 0 0 0 0 0 0
0 0 0 0 0 0 0 0 0 0 0 0 0 0 0 0 0 0 0 0 0 0 0 0 0 0 0 0 0 0 0 0 0 0 0 0 0 0 0 0 0 0 0 0
0 0 0 0 0 0 0 0 0 0 0 0 0 0 0 0 0 0 0 0 0 0 0 0 0 0 0 0 0 0 0 0 0 0 0 0 0 0 0 0 0 0 0 0
0 0 0 0 0 0 0 0 0 0 0 0 0 0 0 0 0 0 0 0 0 0 0 0 0 0 0 0 0 0 0 0 0 0 0 0 0 0 0 0 0 0 0 0
0 0 0 0 0 0 0 0 0 0 0 0 0 0 0 0 0 0 0 0 0 0 0 0 0 0 0 0 0 0 0 0 0 0 0 0 0 0 0 0 0 0 0 0
0 0 0 0 0 0 0 0 0 0 0 0 0 0 0 0 0 0 0 0 0 0 0 0 0 0 0 0 0 0 0 0 0 0 0 0 0 0 0 0 0 0 0 0
0 0 0 0 0 0 0 0 0 0 0 0 0 0 0 0 0 0 0 0 0 0 0 0 0 0 0 0 0 0 0 0 0 0 0 0 0 0 0 0 0 0 0 0
0 0 0 0 0 0 0 0 0 0 0 0 0 0 0 0 0 0 0 0 0 0 0 0 0 0 0 0 0 0 0 0 0 0 0 0 0 0 0 0 0 0 0 0
0 0 0 0 0 0 0 0 0 0 0 0 0 0 0 0 0 0 0 0 0 0 0 0 0 0 0 0 0 0 0 0 0 0 0 0 0 0 0 0 0 0 0 0
0 0 0 0 0 0 0 0 0 0 0 0 0 0 0 0 0 0 0 0 0 0 0 0 0 0 0 0 0 0 0 0 0 0 0 0 0 0 0 0 0 0 0 0
0 0 0 0 0 0 0 0 0 0 0 0 0 0 0 0 0 0 0 0 0 0 0 0 0 0 0 0 0 0 0 0 0 0 0 0 0 0 0 0 0 0 0 0
0 0 0 0 0 0 0 0 0 0 0 0 0 0 0 0 0 0 0 0 0 0 0 0 0 0 0 0 0 0 0 0 0 0 0 0 0 0 0 0 0 0 0 0
0 0 0 0 0 0 0 0 0 0 0 0 0 0 0 0 0 0 0 0 0 0 0 0 0 0 0 0 0 0 0 0 0 0 0 0 0 0 0 0 0 0 0 0
0 0 0 0 0 0 0 0 0 0 0 0 0 0 0 0 0 0 0 0 0 0 0 0 0 0 0 0 0 0 0 0 0 0 0 0 0 0 0 0 0 0 0 0
0 0 0 0 0 0 0 0 0 0 0 0 0 0 0 0 0 0 0 0 0 0 0 0 0 0 0 0 0 0 0 0 0 0 0 0 0 0 0 0 0 0 0 0
0 0 0 0 0 0 0 0 0 0 0 0 0 0 0 0 0 0 0 0 0 0 0 0 0 0 0 0 0 0 0 0 0 0 0 0 0 0 0 0 0 0 0 0
Height
5732 5731 5728 5726 5723 5721 5719 5718 5717 5716 5715 5714 5713 5713 5713 5712 5712 5712 5712 5713 5713 5714 5714 5714 5715 5715 5716 5717 5718 5719 5721 5722 5724 5726 5728 5730 5733 5735 5737 5740 5743 5745 5747 5750
5725 5722 5720 5717 5714 5712 5709 5707 5706 5706 5704 5702 5702 5701 5702 5701 5701 5701 5701 5702 5702 5702 5703 5703 5704 5704 5705 5706 5707 5709 5710 5711 5713 5715 5717 5719 5721 5724 5726 5729 5732 5735 5737 5740
5716 5714 5710 5708 5705 5702 5699 5697 5696 5695 5693 5691 5689 5689 5690 5690 5689 5690 5690 5690 5690 5691 5691 5692 5692 5693 5694 5695 5696 5697 5699 5700 5701 5703 5705 5707 5709 5712 5715 5718 5721 5723 5726 5729
5706 5703 5700 5698 5695 5692 5689 5687 5684 5683 5681 5679 5678 5676 5679 5678 5677 5677 5677 5677 5678 5678 5679 5680 5681 5681 5682 5683 5684 5685 5686 5688 5689 5691 5693 5695 5697 5700 5703 5705 5708 5711 5714 5718
5697 5694 5691 5688 5684 5681 5678 5675 5673 5671 5669 5668 5666 5663 5666 5665 5665 5665 5664 5664 5665 5666 5666 5667 5668 5669 5670 5670 5671 5672 5674 5675 5677 5678 5680 5682 5684 5686 5689 5692 5696 5699 5702 5705
5689 5685 5681 5678 5674 5671 5667 5665 5663 5660 5658 5656 5656 5653 5652 5653 5653 5653 5653 5652 5652 5653 5653 5654 5655 5656 5657 5658 5658 5660 5661 5662 5663 5665 5667 5669 5671 5673 5676 5679 5683 5687 5690 5693
5680 5676 5672 5668 5665 5662 5659 5656 5652 5649 5647 5646 5645 5642 5641 5641 5641 5641 5641 5640 5640 5640 5641 5642 5643 5644 5645 5645 5646 5647 5648 5650 5651 5652 5654 5656 5658 5660 5663 5667 5670 5674 5678 5681
5671 5668 5663 5659 5656 5652 5648 5646 5643 5640 5637 5636 5634 5631 5632 5631 5629 5629 5629 5628 5628 5628 5628 5629 5630 5631 5632 5633 5633 5634 5635 5637 5638 5639 5641 5643 5645 5648 5650 5654 5658 5661 5665 5669
5662 5659 5655 5650 5646 5643 5639 5636 5633 5630 5626 5625 5623 5622 5621 5620 5618 5617 5617 5617 5616 5616 5616 5617 5618 5618 5619 5620 5620 5621 5622 5624 5625 5626 5628 5630 5633 5635 5638 5641 5645 5649 5653 5657
5653 5650 5647 5643 5639 5635 5632 5628 5624 5620 5616 5614 5613 5612 5611 5609 5608 5606 5605 5605 5605 5605 5605 5605 5605 5606 5607 5607 5607 5608 5609 5610 5612 5613 5615 5617 5620 5622 5625 5628 5632 5636 5640 5644
5646 5642 5639 5635 5630 5627 5623 5620 5615 5611 5608 5605 5602 5605 5601 5599 5597 5596 5595 5594 5593 5593 5593 5593 5594 5594 5594 5595 5595 5595 5596 5597 5598 5600 5602 5604 5607 5609 5612 5616 5620 5624 5627 5631
5638 5634 5630 5627 5622 5617 5614 5610 5606 5603 5599 5595 5592 5595 5591 5589 5586 5585 5584 5583 5582 5582 5582 5582 5582 5582 5582 5583 5583 5583 5583 5584 5586 5588 5590 5592 5594 5597 5600 5604 5607 5611 5615 5619
5629 5625 5621 5618 5615 5610 5605 5601 5597 5593 5590 5587 5584 5585 5581 5578 5576 5574 5573 5571 5571 5570 5570 5570 5570 5570 5571 5571 5571 5571 5571 5572 5573 5575 5577 5579 5582 5585 5588 5591 5595 5598 5602 5606
5621 5617 5614 5611 5605 5601 5597 5594 5589 5585 5582 5578 5576 5574 5571 5568 5566 5564 5563 5561 5560 5559 5559 5559 5559 5559 5559 5559 5560 5560 5560 5560 5562 5563 5565 5567 5570 5572 5575 5579 5582 5586 5590 5594
5613 5610 5605 5601 5597 5592 5589 5586 5582 5578 5573 5570 5567 5564 5562 5559 5557 5555 5553 5551 5550 5549 5549 5548 5548 5549 5549 5549 5550 5550 5550 5550 5551 5553 5555 5556 5558 5561 5563 5566 5570 5574 5577 5581
5604 5601 5597 5593 5589 5584 5581 5577 5573 5569 5565 5561 5558 5556 5552 5549 5547 5545 5544 5542 5541 5540 5539 5539 5539 5539 5540 5540 5540 5540 5541 5541 5541 5543 5544 5546 5548 5550 5552 5555 5558 5562 5565 5569
5596 5592 5588 5585 5580 5576 5573 5570 5565 5561 5557 5553 5550 5548 5544 5541 5539 5537 5535 5534 5532 5531 5531 5530 5530 5530 5530 5531 5531 5531 5531 5531 5532 5533 5534 5536 5538 5539 5541 5543 5547 5550 5554 5557
5588 5584 5579 5575 5572 5568 5567 5561 5557 5553 5549 5545 5542 5539 5536 5534 5531 5529 5527 5525 5524 5523 5522 5521 5521 5521 5521 5521 5521 5521 5522 5522 5523 5524 5525 5526 5527 5529 5531 5533 5536 5540 5543 5546
5580 5576 5571 5567 5562 5559 5557 5553 5549 5545 5542 5538 5535 5532 5529 5526 5524 5522 5519 5517 5516 5515 5514 5513 5512 5512 5512 5512 5512 5512 5512 5513 5514 5515 5516 5517 5518 5520 5522 5524 5526 5530 5532 5536
5572 5567 5564 5559 5554 5551 5550 5545 5540 5537 5534 5531 5527 5524 5521 5518 5517 5515 5512 5510 5508 5507 5506 5505 5504 5503 5503 5503 5503 5504 5504 5504 5505 5506 5507 5508 5509 5511 5513 5515 5517 5520 5522 5526
5564 5559 5556 5551 5546 5543 5541 5536 5533 5531 5528 5523 5519 5516 5514 5511 5509 5507 5504 5502 5500 5499 5498 5497 5496 5495 5495 5495 5495 5496 5496 5496 5496 5497 5498 5499 5500 5502 5504 5507 5509 5511 5513 5516
5556 5552 5548 5544 5540 5539 5533 5529 5526 5523 5518 5515 5512 5509 5506 5503 5501 5498 5496 5494 5493 5491 5490 5489 5488 5487 5487 5487 5487 5488 5488 5488 5489 5489 5490 5491 5492 5494 5496 5498 5500 5502 5504 5507
5549 5545 5540 5537 5535 5529 5525 5521 5518 5514 5511 5508 5504 5501 5499 5496 5493 5491 5489 5487 5485 5483 5482 5481 5480 5479 5479 5478 5478 5479 5480 5480 5481 5481 5482 5483 5485 5486 5488 5490 5491 5493 5495 5498
5541 5537 5533 5529 5526 5521 5517 5513 5510 5507 5503 5500 5497 5494 5491 5489 5486 5484 5481 5479 5477 5475 5473 5472 5472 5471 5470 5470 5470 5470 5471 5472 5473 5474 5475 5476 5477 5478 5480 5481 5483 5485 5487 5489
5534 5529 5525 5521 5518 5513 5510 5506 5503 5499 5496 5492 5489 5486 5483 5481 5478 5476 5473 5470 5468 5466 5465 5464 5463 5463 5462 5462 5462 5462 5463 5464 5465 5466 5467 5468 5469 5471 5472 5473 5475 5477 5479 5480
5526 5522 5518 5514 5510 5506 5503 5499 5495 5492 5488 5485 5482 5479 5476 5473 5471 5468 5465 5462 5460 5458 5456 5455 5454 5454 5454 5454 5454 5454 5455 5456 5457 5459 5460 5460 5461 5463 5464 5465 5467 5468 5470 5472
Wind_Speed
28 29 29 30 32 33 34 35 35 35 36 36 37 36 36 36 36 37 37 38 38 38 39 39 39 39 39 39 39 40 40 40 40 41 41 41 42 42 43 42 41 40 41 41
29 30 31 32 33 34 36 36 36 36 36 38 38 38 37 37 37 37 38 38 38 39 39 40 40 40 41 40 40 40 40 41 41 41 41 42 43 43 44 44 43 43 43 42
31 31 32 33 35 36 37 37 37 37 37 39 40 39 38 37 38 39 39 39 39 40 40 40 41 41 41 41 42 42 42 42 43 43 43 43 44 44 44 44 44 44 44 44
31 31 32 33 35 36 36 37 38 38 39 39 40 41 38 39 39 39 40 40 40 40 40 40 40 40 40 41 42 43 43 44 44 44 45 45 46 46 45 46 46 46 46 46
31 31 32 33 34 35 36 36 37 37 39 40 39 42 40 39 39 39 40 40 40 41 41 40 40 40 40 41 42 43 44 44 45 45 45 45 46 47 47 47 47 47 47 47
31 32 33 33 33 33 34 35 36 37 38 39 38 40 40 39 38 38 38 39 40 41 41 41 40 40 41 41 42 42 43 43 44 45 46 45 45 46 48 48 48 48 48 48
31 32 33 33 33 33 34 34 35 36 37 38 37 38 39 38 38 38 37 38 39 40 41 40 40 40 41 41 42 43 43 43 43 45 45 45 45 46 47 48 49 49 49 49
33 32 32 33 33 33 33 33 34 35 36 37 36 37 37 37 38 37 37 38 39 40 40 40 40 40 41 42 43 44 43 43 43 44 45 44 45 46 47 48 49 49 49 49
33 33 32 32 31 31 31 31 32 34 35 36 35 36 36 36 36 38 38 38 38 38 39 39 39 40 41 41 42 43 44 44 44 45 45 45 45 46 47 48 48 48 49 49
33 33 32 32 32 31 31 31 31 31 33 35 36 35 34 33 34 36 37 38 38 38 38 39 39 39 40 41 42 43 44 44 44 45 45 46 46 46 46 47 47 47 48 48
33 33 33 33 32 32 31 30 30 31 33 35 36 35 34 34 34 35 36 36 37 38 38 37 38 38 39 40 41 42 42 43 44 44 44 44 45 46 46 46 47 48 48 48
33 34 33 33 33 32 32 32 31 31 32 34 35 35 34 34 35 35 36 36 37 37 38 38 38 39 38 38 38 40 41 42 42 43 44 44 45 46 46 45 46 47 47 47
32 32 33 32 32 32 31 31 31 32 32 33 34 34 33 34 34 35 35 35 36 37 38 38 38 37 37 37 36 37 38 40 41 42 43 43 44 46 46 45 45 45 46 46
33 32 32 32 31 32 31 31 31 32 32 33 33 33 33 33 33 34 34 34 34 34 35 36 36 35 35 35 34 35 35 36 38 39 40 40 41 43 45 46 46 46 46 46
33 33 32 31 31 32 31 31 32 32 32 32 32 32 32 32 32 32 32 32 32 32 33 33 33 33 33 33 33 33 33 34 35 36 36 37 38 39 41 43 44 44 44 45
33 33 32 32 32 32 32 31 31 31 31 31 30 29 29 30 30 30 30 30 29 29 30 31 31 31 31 31 31 31 32 32 33 34 34 35 35 36 38 40 41 42 42 43
33 33 33 33 33 33 32 30 30 29 29 29 29 28 27 27 28 28 28 28 28 28 27 28 29 29 29 29 30 31 32 32 32 33 33 33 35 35 36 37 38 39 40 41
33 33 33 33 33 33 32 30 29 29 29 28 28 27 26 26 26 26 26 27 27 27 27 28 28 28 29 29 30 30 30 31 31 31 32 32 33 34 34 35 37 37 38 39
33 33 33 33 33 32 31 30 30 29 28 27 26 26 27 27 26 26 26 26 26 26 26 27 28 28 28 28 28 28 29 29 30 31 30 31 31 32 32 33 34 36 37 38
33 33 32 32 32 31 30 30 29 29 27 27 27 27 27 27 27 26 26 26 25 25 25 25 27 27 27 27 27 27 27 28 28 29 30 30 29 29 30 30 31 33 35 36
32 32 31 31 31 31 30 30 29 29 28 28 28 28 28 27 27 27 27 27 26 26 25 25 25 25 26 26 26 27 27 27 27 28 28 29 29 29 29 29 30 31 33 35
31 31 30 30 30 30 30 30 29 29 29 28 28 28 28 27 27 27 27 27 27 26 26 25 25 25 26 27 26 26 26 26 27 27 27 28 29 29 29 29 30 30 31 32
30 30 30 30 30 30 30 30 30 29 29 28 28 28 27 27 27 27 27 27 27 27 27 26 26 26 26 26 26 26 27 26 26 26 26 27 28 29 29 30 30 30 31 31
29 29 30 30 29 30 30 29 29 29 29 28 28 28 28 27 27 27 27 27 27 27 27 27 27 26 26 26 26 26 26 25 25 25 25 26 27 28 28 29 30 30 30 31
30 30 30 29 29 29 29 29 29 29 29 28 28 28 28 27 27 27 27 27 26 26 27 27 26 26 26 26 26 26 26 26 26 25 25 26 26 26 27 28 29 29 30 31
29 30 30 29 29 29 29 29 29 28 28 28 28 28 28 28 28 28 27 26 26 26 26 26 26 25 25 25 26 26 27 28 27 26 26 26 26 26 27 27 28 29 30 31
Wind_Direction
290 287 286 287 288 287 285 282 280 278 276 274 273 273 271 270 269 266 265 263 262 261 260 260 260 259 258 257 256 255 253 253 252 251 250 249 248 247 247 247 247 248 248 249
291 290 289 289 289 288 286 283 281 279 277 275 274 272 271 270 268 266 266 264 263 262 261 260 259 259 259 258 257 256 254 253 252 252 251 250 248 248 247 247 247 247 248 248
294 294 291 289 289 288 286 284 281 280 277 275 274 272 270 270 268 266 265 264 263 262 261 260 260 259 259 258 257 255 254 252 252 252 251 250 249 249 248 247 247 247 248 248
295 295 295 293 291 290 287 284 281 280 279 277 275 274 271 270 269 267 266 264 262 261 260 259 260 259 258 257 256 255 255 253 253 253 252 251 250 249 248 247 246 247 248 248
297 296 295 294 293 291 289 287 283 281 280 278 276 275 273 271 270 268 267 265 263 262 261 261 260 259 258 256 254 255 254 253 253 252 252 251 250 249 247 247 246 247 248 248
299 298 297 296 295 293 291 289 285 283 282 280 279 278 275 273 271 269 267 264 263 262 262 261 260 259 258 257 256 254 254 253 253 251 252 251 251 249 247 247 247 247 247 248
302 301 300 299 297 295 293 291 288 286 284 282 282 279 277 275 272 269 268 265 264 264 263 262 261 260 259 258 258 257 256 255 253 252 252 252 250 249 247 246 246 246 247 247
306 305 305 303 301 300 297 294 291 289 288 286 282 280 280 278 274 271 269 267 266 265 265 264 264 262 261 259 258 258 257 256 254 253 252 252 251 249 248 247 246 246 246 246
309 307 306 304 303 301 299 296 294 292 290 289 286 285 283 280 277 274 271 270 268 267 266 265 264 263 262 261 260 259 257 256 255 255 254 253 252 250 249 247 246 246 246 246
309 307 306 305 303 301 299 298 296 294 291 290 288 287 286 282 280 277 275 271 268 267 266 264 263 262 262 262 261 261 259 258 257 256 256 254 252 251 250 248 246 245 245 245
309 308 307 306 304 302 299 297 295 293 292 290 290 288 286 282 280 278 275 273 270 268 266 265 264 263 263 262 262 262 260 258 256 255 253 253 251 250 249 247 246 246 246 245
309 308 308 308 306 303 300 298 297 295 293 289 289 289 287 283 280 278 276 274 271 269 267 265 265 264 264 263 263 261 260 257 255 254 252 252 249 249 248 247 246 245 246 245
309 309 310 309 308 305 300 299 297 296 294 290 289 289 287 284 281 279 277 274 272 270 268 267 266 264 263 263 262 262 261 258 254 253 252 252 249 248 246 246 245 244 244 245
307 307 308 308 307 304 301 298 297 297 295 293 290 288 285 283 281 279 276 274 272 270 268 268 266 264 263 262 262 262 260 259 255 253 253 252 250 249 246 245 244 244 245 245
305 305 306 305 304 302 301 300 298 298 296 294 293 289 286 283 281 279 276 275 273 271 267 266 265 263 262 262 262 262 261 259 257 254 253 252 250 248 247 245 244 245 245 245
307 306 305 303 302 301 301 302 300 299 298 296 294 291 288 285 283 281 277 276 276 274 271 268 266 264 262 261 261 262 261 260 257 253 253 252 252 250 248 246 244 244 244 244
307 307 305 304 303 301 302 302 301 300 299 297 296 294 292 288 285 283 280 277 276 275 274 271 268 265 264 264 264 265 262 261 258 255 252 252 252 251 248 245 243 243 244 244
307 306 305 305 304 304 304 302 300 300 300 299 298 295 292 291 289 286 283 280 278 276 275 273 270 267 265 264 265 264 263 260 258 255 252 252 250 248 246 243 243 243 244 244
307 307 306 305 305 304 305 305 304 303 300 299 298 297 294 291 290 288 285 282 280 277 275 274 272 269 266 264 264 262 261 259 257 255 253 251 249 246 245 244 243 244 244 243
307 306 305 305 305 306 307 306 305 303 300 298 297 297 297 293 289 287 287 284 281 279 277 275 274 271 268 265 264 261 261 259 257 254 252 251 249 245 245 243 242 242 242 242
308 307 306 305 305 305 307 306 304 303 302 301 299 297 296 295 292 288 286 284 282 279 278 276 275 272 269 266 264 261 261 260 257 254 253 251 248 247 246 244 244 243 242 242
309 309 308 306 305 306 306 304 302 301 300 300 299 298 297 295 295 293 289 286 284 281 278 276 274 271 269 265 262 260 260 259 257 255 253 251 249 247 246 244 244 244 245 245
307 307 306 306 306 306 305 303 301 300 299 300 300 298 298 297 296 295 293 288 285 282 279 276 274 272 269 266 262 258 258 257 256 254 253 251 249 248 248 245 243 244 245 244
306 306 305 305 305 305 304 303 303 301 301 301 300 299 298 297 296 296 294 290 287 284 281 277 274 273 270 266 262 259 256 253 252 253 253 251 249 249 249 247 245 245 245 244
306 305 305 306 306 304 304 303 303 302 301 300 299 299 299 298 297 297 296 291 288 285 281 278 274 271 269 265 262 260 256 253 251 252 253 251 250 248 248 247 246 245 245 245
306 306 305 305 305 305 305 303 303 302 301 300 300 300 298 298 297 297 296 293 289 285 282 278 274 271 268 264 263 260 256 254 253 253 254 252 250 249 249 248 247 247 247 247